Weather in Mastichari

Greece     36°50′54″N   27°04′40″E
temp.,
°C
wind,
m/s
gust,
m/s
humid.,
%
clouds,
%
prec.,
mm/h
press.,
hPa
HPBL,
m
17 may, mon
mon1700:00+19wnw788039 0.0 1011483
03:00+19nw56786 0.0 1010398
06:00+19nnw56765 0.0 1010315
09:00+19nnw457222 0.0 1011245
12:00+20nw45695 0.0 1012251
15:00+20w456799 0.0 1012267
18:00+21sw45734 0.0 1012237
21:00+19sw458344 0.0 1012305
18 may, tue
tue1800:00+19sw458593 0.0 1012323
03:00+19ssw46855 0.0 1011373
06:00+19sw44870 0.0 1011315
09:00+19s448821 0.0 1012299
12:00+20s5688100 0.0 1013303
15:00+20s45875 0.0 1013233
18:00+20s44855 0.0 1012177
21:00+20ssw33825 0.0 101330
19 may, wed
wed1900:00+20s22795 0.0 101322
03:00+20ese118075 0.0 101214
06:00+20ese227630 0.0 101214
09:00+20sse11755 0.0 101327
12:00+21s33695 0.0 1013110
15:00+21sw44730 0.0 1012194
18:00+21ssw45780 0.0 1011179
21:00+20sw45820 0.0 1012125
20 may, thu
thu2000:00+20ssw33850 0.0 101165
03:00+19s22860 0.0 101025
06:00+19s44860 0.0 1009166
09:00+19s56790 0.0 1009353
12:00+19sse55830 0.0 1010330
15:00+20ssw44820 0.0 1010321
18:00+20s33810 0.0 1009249
21:00+20s33834 0.0 101074
21 may, fri
fri2100:00+19s23840 0.0 101092
03:00+19sw34850 0.0 1008331
06:00+19s448284 0.0 1008424
09:00+19s678357 0.0 1009578
12:00+20ssw68807 0.0 1009530
15:00+20ssw6678100 0.0 1009403
18:00+20wsw677472 0.0 1008598
21:00+18wnw778138 0.5 1008593